PulseSat

PulseSat

COSMOS 2456 (730)

Last updated on March 21, 2019, 3:13 a.m. UTC

1 36111U 09070A   19078.68243745  .00000017  00000-0  00000-0 0  9990
2 36111  64.1949 161.6845 0004313 317.0270  38.4924  2.13102857 72063
UTC
Height (km)
Latitude
Longitude
Inclination
Orbital Period

Next 30 passes for location: Hong Kong

Rise time Rise Azimuth (degrees) Set time Set Azimuth (degrees) Duration Max altitude (degrees)

No matching passes for this satellites

PulseSat

PulseSat is the new satellites software and hardware trackering solution by Pulsely.
Satellite Two Line Element Set source: US Air Force Space Command

Download PulseSat for iOS
© 2017 Pulsely Limited